Location: Pinhey's Point
(45.4411°N, 75.9539°W)
Time: 08:13:36
(UTC-05:00)

Iridium 65 - Visible Passes

Search period start: 01 February 2015 00:00
Search period end: 11 February 2015 00:00
Orbit: 776 x 779 km, 86.4° (Epoch: 31 January)

Date Brightness Start Highest point End Pass type
(mag) Time Alt. Az. Time Alt. Az. Time Alt. Az.
01 Feb 8.0 05:26:09 10° SE 05:30:08 23° E 05:34:15 10° NNE visible
01 Feb 5.7 17:32:52 10° N 17:37:58 52° E 17:43:03 10° SSE visible
01 Feb 8.1 19:14:28 10° NNW 19:18:21 21° W 19:22:05 10° SW visible
02 Feb 8.6 04:54:38 10° ESE 04:56:54 13° ENE 04:59:26 10° NE visible
02 Feb 5.5 06:31:46 10° S 06:37:00 82° W 06:42:15 10° N visible
02 Feb 7.2 18:40:17 10° NNW 18:45:03 36° W 18:49:44 10° SSW visible
03 Feb 6.3 05:58:25 10° SSE 06:03:30 57° E 06:08:38 10° N visible
03 Feb 6.1 18:06:28 10° N 18:11:39 64° W 18:16:47 10° S visible
04 Feb 7.4 05:25:34 10° SE 05:30:06 32° E 05:34:45 10° NNE visible
04 Feb 8.5 19:15:20 10° NW 19:18:17 15° WNW 19:21:01 10° WSW visible
05 Feb 8.2 04:53:22 10° ESE 04:56:49 19° E 05:00:27 10° NE visible
05 Feb 5.6 06:32:00 10° SSW 06:37:08 58° W 06:42:18 10° N visible
05 Feb 7.9 18:40:44 10° NNW 18:45:02 26° W 18:49:13 10° SW visible
06 Feb 8.8 04:23:00 10° E 04:23:38 10° ENE 04:24:35 10° ENE visible
06 Feb 5.6 05:58:22 10° S 06:03:34 81° E 06:08:49 10° N visible
06 Feb 6.8 18:06:43 10° NNW 18:11:41 45° W 18:16:36 10° SSW visible
07 Feb 6.7 05:25:12 10° SSE 05:30:07 45° E 05:35:06 10° NNE visible
07 Feb 8.9 19:17:21 10° WNW 19:18:11 10° WNW 19:18:40 10° W visible
08 Feb 7.7 04:52:35 10° SE 04:56:46 26° E 05:01:05 10° NNE visible
08 Feb 5.9 06:32:25 10° SSW 06:37:20 41° W 06:42:15 10° N visible
08 Feb 8.4 18:41:22 10° NW 18:44:59 19° W 18:48:25 10° WSW visible
09 Feb 8.4 04:20:46 10° ESE 04:23:31 15° ENE 04:26:30 10° NE visible
09 Feb 5.4 05:58:29 10° S 06:03:41 73° W 06:08:56 10° N visible
09 Feb 7.6 18:07:05 10° NNW 18:11:42 32° W 18:16:14 10° SW visible
10 Feb 6.0 05:25:02 10° S 05:30:10 64° E 05:35:21 10° N visible
